Hauptseite
METAR-TAF:

METAR-TAF

Flughäfen :

Paganella, Italien

Breite: 46-09N, Länge: 011-02E, Höhe: 2125 m

Beobachtung

Neuester Wetterbericht von vor 1 Stunde und 16 Minuten, um 02:55 UTC
Wind 2 kt aus Süd
Temperatur 3°C
Luftfeuchtigkeit 93%
Luftdruck 1022 hPa
Sichtweite 10 km oder mehr
Leicht bewölkt in der Höhe von 500 ft

METAR: LIVP 160255Z 18002KT 9999 FEW005 03/02 Q1022 RMK FEW MON LIB VAL FOSCHIA SKC SUP VIS MIN 9999

Zeit: 06:11 (04:11 UTC)


TAF: fehlend

Wetterbeobachtungen und Prognosen von mehr als 4000 Flughäfen (METAR und TAF Bericht).

Die verfügbaren Stationen werden durch gelbe und rote Markierungen auf der Karte dargestellt.

Führen Sie die Maus auf sie, um den Namen der Station zu sehen.

Darauf klicken, um die Beobachtung von Wetterbeobachtungen und Prognosen zu sehen.

Um die Karte zu ändern : klicken Sie auf den grünen Tasten mit einem schwarzen Kreuz Zum Vergrößern, auf den grünen Button mit einem Gedankenstrich zu verkleinern, oder auf die grünen Pfeile für benachbarte Karten.


METAR-TAF: